DW6860 Weather Reports


Display with metric or nautical units.
time (UTC)temp
F
wind
direction
speed
MPH
gust
MPH
rain 1hr
in
rain 24hr
in
rain mn
in
humidity
%
barometer
mb
20260509122527 70 187 3.0 8.0 0.00 0.00 0.00 44 1016.7
20260509122513 70 32 3.0 8.0 0.00 0.00 0.00 44 1016.7
20260509122014 69 59 5.0 10.0 0.00 0.00 0.00 45 1016.8
20260509121547 71 38 3.0 12.0 0.00 0.00 0.00 44 1016.8
20260509121521 70 34 5.0 12.0 0.00 0.00 0.00 44 1016.8
20260509121513 70 25 5.0 12.0 0.00 0.00 0.00 44 1016.8
20260509121014 71 27 3.0 12.0 0.00 0.00 0.00 44 1016.8
20260509120524 70 19 2.0 8.0 0.00 0.00 0.00 43 1016.8
20260509120514 70 16 2.0 8.0 0.00 0.00 0.00 43 1016.8
20260509120049 70 57 2.0 4.0 0.00 0.00 0.00 42 1016.8
20260509120014 70 324 2.0 4.0 0.00 0.00 0.00 42 1016.9
20260509115540 69 355 2.0 5.0 0.00 0.00 0.00 41 1016.8
20260509115513 69 309 2.0 5.0 0.00 0.00 0.00 41 1016.9
20260509115025 69 228 2.0 5.0 0.00 0.00 0.00 43 1017.0
20260509115014 69 344 2.0 5.0 0.00 0.00 0.00 43 1017.0
20260509114520 68 169 2.0 6.0 0.00 0.00 0.00 42 1017.0
20260509114513 68 359 2.0 6.0 0.00 0.00 0.00 42 1017.1
20260509114103 69 34 3.0 8.0 0.00 0.00 0.00 44 1017.1
20260509114014 70 8 3.0 8.0 0.00 0.00 0.00 44 1017.1
20260509113517 69 9 2.0 8.0 0.00 0.00 0.00 46 1017.2
20260509113514 69 23 2.0 8.0 0.00 0.00 0.00 46 1017.2
20260509113026 69 5 4.0 11.0 0.00 0.00 0.00 48 1017.3
20260509113014 69 25 4.0 11.0 0.00 0.00 0.00 48 1017.4
20260509112515 69 22 4.0 11.0 0.00 0.00 0.00 45 1017.4
20260509112230 69 64 5.0 10.0 0.00 0.00 0.00 47 1017.3
20260509112049 69 5 3.0 9.0 0.00 0.00 0.00 49 1017.4
20260509112013 69 30 3.0 9.0 0.00 0.00 0.00 49 1017.4
20260509111513 69 36 5.0 10.0 0.00 0.00 0.00 47 1017.3
20260509111317 69 93 3.0 10.0 0.00 0.00 0.00 47 1017.4
20260509111025 69 93 3.0 10.0 0.00 0.00 0.00 47 1017.4
20260509111014 68 32 3.0 10.0 0.00 0.00 0.00 47 1017.4
20260509110520 68 32 1.0 10.0 0.00 0.00 0.00 48 1017.5
20260509110513 68 47 1.0 10.0 0.00 0.00 0.00 48 1017.5
20260509110014 68 143 1.0 6.0 0.00 0.00 0.00 49 1017.6
20260509110002 68 25 1.0 6.0 0.00 0.00 0.00 49 1017.5
20260509105513 66 168 1.0 2.0 0.00 0.00 0.00 51 1017.7
20260509105502 66 180 1.0 2.0 0.00 0.00 0.00 52 1017.6
20260509105014 66 59 1.0 5.0 0.00 0.00 0.00 50 1017.8
20260509104958 66 176 1.0 6.0 0.00 0.00 0.00 50 1017.7
20260509104513 66 32 3.0 9.0 0.00 0.00 0.00 49 1017.8
20260509104501 66 44 3.0 9.0 0.00 0.00 0.00 49 1017.7
20260509104014 67 22 4.0 11.0 0.00 0.00 0.00 49 1017.8
20260509103949 67 19 4.0 11.0 0.00 0.00 0.00 49 1017.8
20260509103513 67 21 4.0 11.0 0.00 0.00 0.00 48 1017.9
20260509103446 67 9 4.0 11.0 0.00 0.00 0.00 48 1017.8
20260509103339 67 9 2.0 7.0 0.00 0.00 0.00 50 1017.8
20260509103315 67 119 1.0 4.0 0.00 0.00 0.00 51 1017.8
20260509103041 67 24 3.0 7.0 0.00 0.00 0.00 49 1017.8
20260509103014 67 21 3.0 7.0 0.00 0.00 0.00 49 1017.9
20260509102534 68 26 3.0 7.0 0.00 0.00 0.00 49 1017.9
20260509102035 67 104 1.0 4.0 0.00 0.00 0.00 51 1017.9
20260509101513 67 37 2.0 4.0 0.00 0.00 0.00 52 1017.8
20260509101445 67 127 2.0 4.0 0.00 0.00 0.00 51 1017.8
20260509101014 66 38 2.0 9.0 0.00 0.00 0.00 52 1017.8
20260509100943 66 16 2.0 9.0 0.00 0.00 0.00 53 1017.9
20260509100513 66 43 2.0 9.0 0.00 0.00 0.00 55 1017.9
20260509100440 66 17 2.0 9.0 0.00 0.00 0.00 54 1017.8
20260509100036 66 36 2.0 8.0 0.00 0.00 0.00 55 1018.0
20260509095937 65 161 2.0 8.0 0.00 0.00 0.00 55 1018.0
20260509095551 65 32 2.0 6.0 0.00 0.00 0.00 55 1017.9
20260509095513 65 42 2.0 8.0 0.00 0.00 0.00 55 1018.1
20260509095444 65 15 2.0 8.0 0.00 0.00 0.00 55 1018.0
20260509095014 65 101 2.0 6.0 0.00 0.00 0.00 54 1018.0
20260509094513 65 106 2.0 5.0 0.00 0.00 0.00 54 1018.1
20260509094438 65 157 2.0 5.0 0.00 0.00 0.00 55 1018.0
20260509094014 65 27 2.0 7.0 0.00 0.00 0.00 55 1018.2
20260509093936 65 58 3.0 7.0 0.00 0.00 0.00 54 1018.0
20260509093513 65 23 2.0 7.0 0.00 0.00 0.00 56 1018.1
20260509093429 65 24 2.0 7.0 0.00 0.00 0.00 57 1018.1
20260509093013 64 32 2.0 7.0 0.00 0.00 0.00 57 1018.2
20260509092952 65 41 2.0 7.0 0.00 0.00 0.00 58 1018.1
20260509092513 64 29 3.0 7.0 0.00 0.00 0.00 58 1018.2
20260509092430 64 57 3.0 7.0 0.00 0.00 0.00 58 1018.1
20260509092014 64 31 3.0 6.0 0.00 0.00 0.00 59 1018.2
20260509091952 64 9 3.0 6.0 0.00 0.00 0.00 59 1018.2
20260509091746 64 44 3.0 13.0 0.00 0.00 0.00 59 1018.1
20260509091725 64 9 2.0 13.0 0.00 0.00 0.00 59 1018.1
20260509091514 64 28 3.0 13.0 0.00 0.00 0.00 58 1018.2
20260509091035 64 26 3.0 13.0 0.00 0.00 0.00 59 1018.3
20260509090515 63 33 2.0 6.0 0.00 0.00 0.00 61 1018.2
20260509090431 63 5 2.0 6.0 0.00 0.00 0.00 61 1018.2
20260509090014 63 28 2.0 6.0 0.00 0.00 0.00 62 1018.2
20260509085931 63 15 2.0 6.0 0.00 0.00 0.00 62 1018.1
20260509085513 62 36 3.0 6.0 0.00 0.00 0.00 63 1018.1
20260509085427 62 112 3.0 6.0 0.00 0.00 0.00 64 1017.9
20260509085013 62 42 3.0 6.0 0.00 0.00 0.00 64 1018.1
20260509084924 62 21 3.0 6.0 0.00 0.00 0.00 65 1018.0
20260509084513 62 49 2.0 6.0 0.00 0.00 0.00 65 1018.1
20260509084420 62 35 2.0 6.0 0.00 0.00 0.00 65 1018.0
20260509084013 61 73 2.0 6.0 0.00 0.00 0.00 65 1018.1
20260509083923 61 36 2.0 6.0 0.00 0.00 0.00 65 1018.1
20260509083513 61 69 2.0 6.0 0.00 0.00 0.00 66 1018.1
20260509083421 61 82 2.0 6.0 0.00 0.00 0.00 66 1018.1
20260509083158 60 57 1.0 6.0 0.00 0.00 0.00 67 1018.1
20260509083013 60 60 1.0 6.0 0.00 0.00 0.00 67 1018.2
20260509082924 60 57 1.0 6.0 0.00 0.00 0.00 67 1018.1
20260509082513 60 88 1.0 7.0 0.00 0.00 0.00 68 1018.2
20260509082425 60 230 1.0 7.0 0.00 0.00 0.00 68 1018.2
20260509082014 60 112 2.0 8.0 0.00 0.00 0.00 69 1018.3
20260509081938 60 62 2.0 8.0 0.00 0.00 0.00 69 1018.2
20260509081514 58 84 2.0 8.0 0.00 0.00 0.00 74 1018.3
20260509081434 58 23 3.0 8.0 0.00 0.00 0.00 74 1018.2
20260509081014 58 37 2.0 7.0 0.00 0.00 0.00 75 1018.3
20260509080929 58 235 2.0 7.0 0.00 0.00 0.00 75 1018.2
20260509080639 57 126 2.0 8.0 0.00 0.00 0.00 77 1018.2
20260509080513 57 49 2.0 7.0 0.00 0.00 0.00 76 1018.3
20260509080510 57 355 2.0 5.0 0.00 0.00 0.00 76 1018.2
20260509080014 57 56 2.0 8.0 0.00 0.00 0.00 76 1018.3
20260509075643 56 61 1.0 6.0 0.00 0.00 0.00 79 1018.2
20260509075514 57 57 1.0 8.0 0.00 0.00 0.00 77 1018.2
20260509075424 56 40 1.0 8.0 0.00 0.00 0.00 78 1018.2
20260509075014 56 79 1.0 6.0 0.00 0.00 0.00 79 1018.3
20260509074513 56 99 2.0 5.0 0.00 0.00 0.00 80 1018.3
20260509074427 56 130 2.0 5.0 0.00 0.00 0.00 80 1018.2
20260509074014 55 93 2.0 8.0 0.00 0.00 0.00 81 1018.2
20260509073936 55 133 2.0 8.0 0.00 0.00 0.00 81 1018.2
20260509073513 55 64 2.0 8.0 0.00 0.00 0.00 82 1018.1
20260509073422 55 136 2.0 8.0 0.00 0.00 0.00 82 1018.0
20260509073155 53 115 1.0 5.0 0.00 0.00 0.00 85 1018.1
20260509073014 54 44 2.0 5.0 0.00 0.00 0.00 83 1018.2
20260509072958 54 13 2.0 8.0 0.00 0.00 0.00 83 1018.1
20260509072513 54 50 2.0 8.0 0.00 0.00 0.00 84 1018.2
20260509072437 53 112 1.0 5.0 0.00 0.00 0.00 85 1018.1
20260509072411 54 82 2.0 8.0 0.00 0.00 0.00 84 1018.1
20260509072353 53 197 1.0 5.0 0.00 0.00 0.00 86 1018.2
20260509072014 53 117 1.0 8.0 0.00 0.00 0.00 85 1018.2
20260509071535 53 129 1.0 5.0 0.00 0.00 0.00 85 1018.2
20260509071013 53 102 1.0 5.0 0.00 0.00 0.00 86 1018.2
20260509070513 52 35 2.0 4.0 0.00 0.00 0.00 86 1018.3
20260509070434 52 71 2.0 4.0 0.00 0.00 0.00 86 1018.2
20260509070128 52 24 2.0 4.0 0.00 0.00 0.00 86 1018.1
20260509070036 52 29 2.0 4.0 0.00 0.00 0.00 86 1018.2
20260509065513 52 49 1.0 4.0 0.00 0.00 0.00 87 1018.3
20260509065412 51 38 1.0 4.0 0.00 0.00 0.00 87 1018.3
20260509065013 51 69 1.0 3.0 0.00 0.00 0.00 87 1018.2
20260509064907 51 74 1.0 3.0 0.00 0.00 0.00 87 1018.2
20260509064513 51 82 1.0 4.0 0.00 0.00 0.00 87 1018.2
20260509064407 51 101 1.0 4.0 0.00 0.00 0.00 87 1018.1
20260509064015 50 78 1.0 6.0 0.00 0.00 0.00 87 1018.2
20260509063921 51 103 1.0 6.0 0.00 0.00 0.00 87 1018.2
20260509063627 50 91 1.0 6.0 0.00 0.00 0.00 88 1018.2
20260509063512 50 62 1.0 6.0 0.00 0.00 0.00 87 1018.2
20260509063406 50 91 1.0 6.0 0.00 0.00 0.00 88 1018.2
20260509063013 50 86 1.0 3.0 0.00 0.00 0.00 87 1018.3
20260509062915 50 17 1.0 3.0 0.00 0.00 0.00 87 1018.2
20260509062513 50 81 1.0 5.0 0.00 0.00 0.00 88 1018.2
20260509062405 50 119 1.0 5.0 0.00 0.00 0.00 88 1018.2
20260509062013 49 44 1.0 5.0 0.00 0.00 0.00 88 1018.3
20260509061856 49 80 1.0 5.0 0.00 0.00 0.00 87 1018.2
20260509061622 49 28 1.0 4.0 0.00 0.00 0.00 88 1018.2
20260509061513 49 37 1.0 4.0 0.00 0.00 0.00 88 1018.3
20260509061435 49 19 2.0 4.0 0.00 0.00 0.00 88 1018.3
20260509061013 49 39 1.0 3.0 0.00 0.00 0.00 88 1018.3
20260509060513 49 42 1.0 4.0 0.00 0.00 0.00 88 1018.4
20260509060349 49 32 1.0 4.0 0.00 0.00 0.00 88 1018.2
20260509060014 49 34 1.0 4.0 0.00 0.00 0.00 88 1018.3
20260509055846 49 70 1.0 4.0 0.00 0.00 0.00 88 1018.3
20260509055513 48 32 2.0 4.0 0.00 0.00 0.00 88 1018.3
20260509055346 48 21 2.0 4.0 0.00 0.00 0.00 88 1018.2
20260509055014 48 34 2.0 5.0 0.00 0.00 0.00 88 1018.1
20260509054847 48 24 2.0 5.0 0.00 0.00 0.00 88 1018.2
20260509054512 48 35 2.0 5.0 0.00 0.00 0.00 88 1018.1
20260509054342 48 11 2.0 5.0 0.00 0.00 0.00 88 1018.1
20260509054014 48 42 1.0 3.0 0.00 0.00 0.00 88 1018.2
20260509053847 48 20 1.0 3.0 0.00 0.00 0.00 87 1018.0
20260509053534 48 47 1.0 3.0 0.00 0.00 0.00 87 1018.2
20260509053345 48 44 1.0 3.0 0.00 0.00 0.00 87 1018.1
20260509053034 48 48 1.0 3.0 0.00 0.00 0.00 87 1018.1
20260509052835 48 52 1.0 3.0 0.00 0.00 0.00 87 1018.0
20260509052513 48 37 1.0 3.0 0.00 0.00 0.00 87 1018.1
20260509052338 48 29 1.0 3.0 0.00 0.00 0.00 87 1018.0
20260509052250 48 28 1.0 3.0 0.00 0.00 0.00 86 1017.9
20260509052015 48 28 2.0 4.0 0.00 0.00 0.00 87 1018.0
20260509051942 47 29 2.0 4.0 0.00 0.00 0.00 87 1017.9
20260509051539 48 81 1.0 2.0 0.00 0.00 0.00 86 1017.9
20260509051513 48 27 2.0 4.0 0.00 0.00 0.00 87 1018.0
20260509051412 48 29 2.0 4.0 0.00 0.00 0.00 87 1017.8
20260509051015 48 43 1.0 4.0 0.00 0.00 0.00 87 1018.0
20260509050513 48 91 1.0 3.0 0.00 0.00 0.00 86 1018.0
20260509050124 47 141 0.0 2.0 0.00 0.00 0.00 86 1017.9
20260509050013 48 141 0.0 2.0 0.00 0.00 0.00 86 1017.9
20260509045513 48 141 0.0 2.0 0.00 0.00 0.00 86 1017.9
20260509045355 47 141 0.0 1.0 0.00 0.00 0.00 86 1017.8
20260509045013 48 141 0.0 1.0 0.00 0.00 0.00 85 1017.7
20260509044852 47 141 0.0 1.0 0.00 0.00 0.00 85 1017.7
20260509044512 48 141 0.0 1.0 0.00 0.00 0.00 85 1017.7
20260509044438 48 141 0.0 1.0 0.00 0.00 0.00 85 1017.7
20260509044354 48 141 0.0 1.0 0.00 0.00 0.00 85 1017.7
20260509044015 48 0 0.0 1.0 0.00 0.00 0.00 85 1017.7
20260509043512 48 141 0.0 1.0 0.00 0.00 0.00 85 1017.7
20260509043435 48 141 0.0 2.0 0.00 0.00 0.00 85 1017.7
20260509043357 48 141 0.0 2.0 0.00 0.00 0.00 85 1017.7
20260509043014 48 141 0.0 2.0 0.00 0.00 0.00 85 1017.7
20260509042534 48 141 0.0 2.0 0.00 0.00 0.00 85 1017.7
20260509042329 48 141 0.0 1.0 0.00 0.00 0.00 85 1017.7
20260509042014 48 141 0.0 1.0 0.00 0.00 0.00 85 1017.7
20260509041826 48 141 0.0 1.0 0.00 0.00 0.00 85 1017.5
20260509041513 48 141 0.0 1.0 0.00 0.00 0.00 85 1017.6
20260509041439 48 141 0.0 2.0 0.00 0.00 0.00 85 1017.6
20260509041356 48 141 0.0 1.0 0.00 0.00 0.00 85 1017.6
20260509041014 48 141 0.0 2.0 0.00 0.00 0.00 85 1017.7
20260509040513 48 141 0.0 2.0 0.00 0.00 0.00 84 1017.7
20260509040324 48 141 0.0 2.0 0.00 0.00 0.00 85 1017.6
20260509040013 48 141 0.0 1.0 0.00 0.00 0.00 84 1017.6
20260509035817 48 141 0.0 1.0 0.00 0.00 0.00 84 1017.6
20260509035512 48 141 0.0 2.0 0.00 0.00 0.00 85 1017.6
20260509035313 48 141 0.0 2.0 0.00 0.00 0.00 85 1017.6
20260509035013 48 141 0.0 2.0 0.00 0.00 0.00 84 1017.6
20260509034927 48 141 0.0 1.0 0.00 0.00 0.00 84 1017.5
20260509034839 48 141 0.0 2.0 0.00 0.00 0.00 84 1017.5
20260509034513 48 141 0.0 2.0 0.00 0.00 0.00 84 1017.6
20260509034013 48 141 0.0 1.0 0.00 0.00 0.00 84 1017.5
20260509033817 48 141 0.0 1.0 0.00 0.00 0.00 84 1017.5
20260509033513 48 141 0.0 1.0 0.00 0.00 0.00 84 1017.5
20260509033321 49 141 0.0 1.0 0.00 0.00 0.00 84 1017.6
20260509033034 48 141 0.0 1.0 0.00 0.00 0.00 84 1017.6
20260509032810 49 141 0.0 2.0 0.00 0.00 0.00 84 1017.6
20260509032513 48 141 0.0 2.0 0.00 0.00 0.00 84 1017.6
20260509032311 49 141 0.0 2.0 0.00 0.00 0.00 84 1017.6
20260509032041 49 141 0.0 1.0 0.00 0.00 0.00 84 1017.7
20260509032013 48 142 0.0 2.0 0.00 0.00 0.00 84 1017.6
20260509031841 49 141 0.0 1.0 0.00 0.00 0.00 84 1017.7
20260509031514 48 145 0.0 1.0 0.00 0.00 0.00 84 1017.7
20260509031014 49 92 0.0 2.0 0.00 0.00 0.00 83 1017.8
20260509030808 49 92 0.0 2.0 0.00 0.00 0.00 83 1017.6
20260509030534 48 92 0.0 2.0 0.00 0.00 0.00 83 1017.7
20260509030316 49 92 0.0 2.0 0.00 0.00 0.00 83 1017.7
20260509030034 49 92 0.0 2.0 0.00 0.00 0.00 83 1017.8
20260509025809 49 92 0.0 2.0 0.00 0.00 0.00 83 1017.8
20260509025512 48 92 0.0 1.0 0.00 0.00 0.00 82 1017.8
20260509025250 49 92 0.0 1.0 0.00 0.00 0.00 82 1017.7
20260509025035 49 92 0.0 1.0 0.00 0.00 0.00 82 1017.8
20260509024754 49 92 0.0 1.0 0.00 0.00 0.00 82 1017.8
20260509024512 49 92 0.0 1.0 0.00 0.00 0.00 82 1017.7
20260509024242 49 92 0.0 1.0 0.00 0.00 0.00 82 1017.8
20260509024013 49 92 0.0 1.0 0.00 0.00 0.00 82 1017.8
20260509023741 49 92 0.0 1.0 0.00 0.00 0.00 82 1017.8
20260509023545 49 92 0.0 1.0 0.00 0.00 0.00 81 1017.7
20260509023514 49 92 0.0 1.0 0.00 0.00 0.00 82 1017.8
20260509023334 49 92 0.0 2.0 0.00 0.00 0.00 81 1017.7
20260509023013 49 99 0.0 2.0 0.00 0.00 0.00 81 1017.8
20260509022513 49 99 0.0 2.0 0.00 0.00 0.00 81 1017.7
20260509022324 49 79 0.0 0.0 0.00 0.00 0.00 80 1017.7
20260509022244 49 92 0.0 2.0 0.00 0.00 0.00 81 1017.7
20260509022034 49 79 0.0 1.0 0.00 0.00 0.00 81 1017.7
20260509021749 49 79 0.0 1.0 0.00 0.00 0.00 81 1017.7
20260509021514 49 0 0.0 0.0 0.00 0.00 0.00 81 1017.8
20260509021013 49 0 0.0 0.0 0.00 0.00 0.00 80 1017.8
20260509020745 49 79 0.0 0.0 0.00 0.00 0.00 80 1017.7
20260509020513 49 0 0.0 0.0 0.00 0.00 0.00 80 1017.7
20260509020236 49 79 0.0 0.0 0.00 0.00 0.00 80 1017.7
20260509020014 49 79 0.0 1.0 0.00 0.00 0.00 80 1017.7
20260509015942 50 79 0.0 1.0 0.00 0.00 0.00 80 1017.8
20260509015830 49 79 0.0 1.0 0.00 0.00 0.00 80 1017.8
20260509015513 50 79 0.0 1.0 0.00 0.00 0.00 80 1017.8
20260509015034 50 79 0.0 1.0 0.00 0.00 0.00 80 1017.8
20260509014727 50 79 0.0 1.0 0.00 0.00 0.00 80 1017.7
20260509014533 50 79 0.0 1.0 0.00 0.00 0.00 80 1017.8
20260509014231 50 79 0.0 1.0 0.00 0.00 0.00 80 1017.8
20260509014013 50 79 0.0 1.0 0.00 0.00 0.00 79 1017.8
20260509013733 50 79 0.0 1.0 0.00 0.00 0.00 79 1017.8
20260509013513 50 79 0.0 1.0 0.00 0.00 0.00 79 1017.8
20260509013230 50 79 0.0 1.0 0.00 0.00 0.00 79 1017.8
20260509013013 50 79 0.0 1.0 0.00 0.00 0.00 79 1017.9
20260509012726 50 79 0.0 1.0 0.00 0.00 0.00 79 1017.9
20260509012512 50 79 0.0 1.0 0.00 0.00 0.00 79 1018.1
20260509012224 50 79 0.0 0.0 0.00 0.00 0.00 79 1017.9
20260509012013 50 0 0.0 0.0 0.00 0.00 0.00 79 1018.1
20260509011718 50 79 0.0 0.0 0.00 0.00 0.00 79 1018.0
20260509011513 50 79 0.0 1.0 0.00 0.00 0.00 79 1018.1
20260509011214 51 79 0.0 1.0 0.00 0.00 0.00 79 1018.0
20260509011013 51 79 0.0 1.0 0.00 0.00 0.00 79 1018.1
20260509010844 51 79 0.0 1.0 0.00 0.00 0.00 78 1018.0
20260509010748 51 79 0.0 1.0 0.00 0.00 0.00 79 1018.0
20260509010513 51 79 0.0 1.0 0.00 0.00 0.00 78 1018.1
20260509010013 51 79 0.0 1.0 0.00 0.00 0.00 78 1018.0
20260509005707 51 79 0.0 1.0 0.00 0.00 0.00 78 1017.9
20260509005513 51 0 0.0 0.0 0.00 0.00 0.00 78 1018.1
20260509005210 51 79 0.0 0.0 0.00 0.00 0.00 78 1018.1
20260509005014 51 0 0.0 0.0 0.00 0.00 0.00 78 1018.2
20260509004703 51 79 0.0 0.0 0.00 0.00 0.00 78 1018.0
20260509004533 51 0 0.0 0.0 0.00 0.00 0.00 78 1018.1
20260509004159 51 79 0.0 0.0 0.00 0.00 0.00 78 1018.0
20260509004013 51 0 0.0 0.0 0.00 0.00 0.00 78 1018.1
20260509003653 51 79 0.0 0.0 0.00 0.00 0.00 78 1018.0
20260509003513 51 0 0.0 0.0 0.00 0.00 0.00 78 1018.1
20260509003225 51 79 0.0 1.0 0.00 0.00 0.00 78 1018.0
20260509003150 51 79 0.0 0.0 0.00 0.00 0.00 78 1018.0
20260509003035 51 0 0.0 0.0 0.00 0.00 0.00 78 1018.1
20260509002513 51 79 0.0 1.0 0.00 0.00 0.00 78 1018.1
20260509002137 51 79 0.0 1.0 0.00 0.00 0.00 78 1018.0
20260509002034 51 79 0.0 1.0 0.00 0.00 0.00 78 1018.1
20260509001634 51 79 0.0 1.0 0.00 0.00 0.00 78 1018.0
20260509001513 51 79 0.0 1.0 0.00 0.00 0.00 78 1018.0
20260509001123 51 79 0.0 2.0 0.00 0.00 0.00 78 1018.0
20260509001013 51 90 0.0 2.0 0.00 0.00 0.00 78 1018.1
20260509000837 51 137 0.0 2.0 0.00 0.00 0.00 78 1018.1
20260509000814 51 149 0.0 2.0 0.00 0.00 0.00 78 1018.0
20260509000713 51 79 0.0 2.0 0.00 0.00 0.00 78 1017.9
20260509000513 51 112 0.0 2.0 0.00 0.00 0.00 78 1018.1
20260509000014 51 132 0.0 2.0 0.00 0.00 0.00 78 1018.0
20260508235512 51 150 0.0 2.0 0.00 0.00 0.00 78 1018.1
20260508235111 51 234 0.0 3.0 0.00 0.00 0.00 78 1018.0
20260508235013 51 126 0.0 3.0 0.00 0.00 0.00 78 1018.1
20260508234901 51 42 0.0 4.0 0.00 0.00 0.00 77 1017.9
20260508234850 51 121 0.0 1.0 0.00 0.00 0.00 76 1017.9
20260508234717 51 171 0.0 4.0 0.00 0.00 0.00 77 1018.0
20260508234533 51 115 0.0 4.0 0.00 0.00 0.00 77 1018.1
20260508234013 51 119 0.0 4.0 0.00 0.00 0.00 77 1018.0
20260508233514 51 105 0.0 2.0 0.00 0.00 0.00 77 1018.0
20260508233106 51 122 0.0 2.0 0.00 0.00 0.00 76 1017.9
20260508233013 51 74 0.0 2.0 0.00 0.00 0.00 76 1018.1
20260508232748 51 46 0.0 0.0 0.00 0.00 0.00 76 1018.0
20260508232631 51 90 0.0 2.0 0.00 0.00 0.00 76 1017.9
20260508232514 51 46 0.0 2.0 0.00 0.00 0.00 76 1018.0
20260508232014 52 0 0.0 0.0 0.00 0.00 0.00 76 1018.0
20260508231557 52 46 0.0 0.0 0.00 0.00 0.00 76 1018.0
20260508231533 52 0 0.0 0.0 0.00 0.00 0.00 76 1018.1
20260508231157 52 46 0.0 0.0 0.00 0.00 0.00 75 1018.0
20260508231118 52 46 0.0 0.0 0.00 0.00 0.00 76 1017.9
20260508231035 52 0 0.0 0.0 0.00 0.00 0.00 76 1018.0
20260508230513 52 0 0.0 0.0 0.00 0.00 0.00 75 1018.0
20260508230116 52 46 0.0 0.0 0.00 0.00 0.00 75 1018.0
20260508230013 52 0 0.0 0.0 0.00 0.00 0.00 75 1018.0
20260508225539 52 46 0.0 0.0 0.00 0.00 0.00 75 1018.0
20260508225513 52 0 0.0 0.0 0.00 0.00 0.00 75 1018.0
20260508225048 52 46 0.0 0.0 0.00 0.00 0.00 74 1018.0
20260508225034 52 0 0.0 0.0 0.00 0.00 0.00 74 1018.1
20260508224540 53 46 0.0 0.0 0.00 0.00 0.00 74 1018.1
20260508224512 52 0 0.0 0.0 0.00 0.00 0.00 74 1018.1
20260508224103 53 46 0.0 0.0 0.00 0.00 0.00 73 1018.0
20260508224013 53 0 0.0 0.0 0.00 0.00 0.00 73 1018.1
20260508223543 53 46 0.0 0.0 0.00 0.00 0.00 73 1018.1
20260508223534 53 0 0.0 0.0 0.00 0.00 0.00 73 1018.1
20260508223239 53 46 0.0 0.0 0.00 0.00 0.00 72 1018.0
20260508223119 53 46 0.0 0.0 0.00 0.00 0.00 72 1018.0
20260508223013 53 0 0.0 0.0 0.00 0.00 0.00 72 1018.1
20260508222534 53 0 0.0 0.0 0.00 0.00 0.00 72 1018.1
20260508222021 53 46 0.0 0.0 0.00 0.00 0.00 71 1018.0
20260508222013 54 0 0.0 0.0 0.00 0.00 0.00 71 1018.0
20260508221615 54 46 0.0 0.0 0.00 0.00 0.00 70 1017.9
20260508221532 54 46 0.0 0.0 0.00 0.00 0.00 71 1017.9
20260508221514 54 0 0.0 0.0 0.00 0.00 0.00 71 1018.0
20260508221036 54 0 0.0 0.0 0.00 0.00 0.00 70 1018.0
20260508220525 54 46 0.0 0.0 0.00 0.00 0.00 70 1017.9
20260508220512 54 0 0.0 0.0 0.00 0.00 0.00 70 1018.0
20260508220040 54 0 0.0 0.0 0.00 0.00 0.00 70 1018.0
20260508220010 54 46 0.0 0.0 0.00 0.00 0.00 70 1018.0
20260508215512 54 0 0.0 0.0 0.00 0.00 0.00 69 1018.0
20260508215502 54 46 0.0 0.0 0.00 0.00 0.00 69 1018.0
20260508215013 54 0 0.0 0.0 0.00 0.00 0.00 69 1018.1
20260508214950 55 46 0.0 0.0 0.00 0.00 0.00 69 1018.0
20260508214512 55 0 0.0 0.0 0.00 0.00 0.00 68 1018.1
20260508214447 55 46 0.0 0.0 0.00 0.00 0.00 68 1018.1
20260508214013 55 0 0.0 0.0 0.00 0.00 0.00 68 1018.1
20260508213958 55 46 0.0 0.0 0.00 0.00 0.00 68 1018.0
20260508213513 55 0 0.0 0.0 0.00 0.00 0.00 68 1018.1
20260508213450 55 46 0.0 0.0 0.00 0.00 0.00 67 1018.1
20260508213013 55 0 0.0 0.0 0.00 0.00 0.00 67 1018.1
20260508212943 55 46 0.0 0.0 0.00 0.00 0.00 67 1018.0
20260508212533 55 0 0.0 0.0 0.00 0.00 0.00 67 1018.1
20260508212444 56 46 0.0 0.0 0.00 0.00 0.00 67 1018.0
20260508212013 56 0 0.0 0.0 0.00 0.00 0.00 66 1018.0
20260508211926 56 46 0.0 0.0 0.00 0.00 0.00 66 1017.9
20260508211513 56 0 0.0 0.0 0.00 0.00 0.00 66 1018.0
20260508211419 56 46 0.0 0.0 0.00 0.00 0.00 66 1018.0
20260508211033 56 0 0.0 0.0 0.00 0.00 0.00 66 1018.1
20260508210906 56 46 0.0 0.0 0.00 0.00 0.00 65 1018.0
20260508210618 56 46 0.0 1.0 0.00 0.00 0.00 65 1017.8
20260508210512 56 0 0.0 0.0 0.00 0.00 0.00 65 1018.0
20260508210458 56 46 0.0 0.0 0.00 0.00 0.00 65 1017.9
20260508210013 56 46 0.0 1.0 0.00 0.00 0.00 65 1017.8
20260508205512 56 46 0.0 1.0 0.00 0.00 0.00 65 1017.9
20260508205415 56 46 0.0 1.0 0.00 0.00 0.00 65 1017.8
20260508205034 57 0 0.0 0.0 0.00 0.00 0.00 64 1017.9
20260508204920 57 46 0.0 0.0 0.00 0.00 0.00 64 1017.9
20260508204514 57 0 0.0 0.0 0.00 0.00 0.00 64 1018.0
20260508204427 58 46 0.0 1.0 0.00 0.00 0.00 61 1017.9
20260508204343 57 46 0.0 0.0 0.00 0.00 0.00 64 1018.0
20260508204033 57 46 0.0 0.0 0.00 0.00 0.00 63 1017.8
20260508204013 57 0 0.0 0.0 0.00 0.00 0.00 63 1017.9
20260508203522 58 46 0.0 0.0 0.00 0.00 0.00 62 1017.9
20260508203513 57 0 0.0 0.0 0.00 0.00 0.00 62 1018.0
20260508203225 58 46 0.0 1.0 0.00 0.00 0.00 61 1017.9
20260508203013 58 0 0.0 0.0 0.00 0.00 0.00 62 1017.9
20260508203005 58 46 0.0 0.0 0.00 0.00 0.00 62 1017.9
20260508202512 58 46 0.0 1.0 0.00 0.00 0.00 61 1018.0
20260508202013 58 46 0.0 1.0 0.00 0.00 0.00 61 1018.0
20260508201513 58 0 0.0 0.0 0.00 0.00 0.00 60 1017.9
20260508201323 58 46 0.0 0.0 0.00 0.00 0.00 60 1017.9
20260508201013 59 0 0.0 0.0 0.00 0.00 0.00 59 1018.0
20260508200829 59 46 0.0 0.0 0.00 0.00 0.00 59 1017.8
20260508200533 59 0 0.0 0.0 0.00 0.00 0.00 59 1017.9
20260508200310 59 46 0.0 0.0 0.00 0.00 0.00 58 1017.9
20260508200035 59 0 0.0 0.0 0.00 0.00 0.00 58 1017.8
20260508195810 59 46 0.0 0.0 0.00 0.00 0.00 58 1017.8
20260508195513 60 0 0.0 0.0 0.00 0.00 0.00 58 1017.8
20260508195313 60 46 0.0 0.0 0.00 0.00 0.00 57 1017.8
20260508195034 60 0 0.0 0.0 0.00 0.00 0.00 57 1017.8
20260508194802 60 46 0.0 1.0 0.00 0.00 0.00 57 1017.7
20260508194522 60 46 0.0 1.0 0.00 0.00 0.00 56 1017.8
20260508194513 60 46 0.0 1.0 0.00 0.00 0.00 56 1017.7
20260508194034 60 46 0.0 1.0 0.00 0.00 0.00 56 1017.7
20260508193733 60 46 0.0 1.0 0.00 0.00 0.00 55 1017.7
20260508193513 61 46 0.0 1.0 0.00 0.00 0.00 55 1017.7
20260508193500 61 46 0.0 1.0 0.00 0.00 0.00 55 1017.6
20260508193321 61 46 0.0 1.0 0.00 0.00 0.00 55 1017.6
20260508193012 61 46 0.0 1.0 0.00 0.00 0.00 55 1017.6
20260508192513 61 46 0.0 1.0 0.00 0.00 0.00 54 1017.6
20260508192243 61 46 0.0 1.0 0.00 0.00 0.00 54 1017.6
20260508192013 61 46 0.0 1.0 0.00 0.00 0.00 54 1017.5
20260508191730 61 46 0.0 1.0 0.00 0.00 0.00 54 1017.4
20260508191533 61 46 0.0 3.0 0.00 0.00 0.00 54 1017.4
20260508191222 62 46 0.0 3.0 0.00 0.00 0.00 54 1017.3
20260508191033 62 66 0.0 3.0 0.00 0.00 0.00 54 1017.4
20260508190717 62 46 0.0 3.0 0.00 0.00 0.00 54 1017.4
20260508190512 62 82 0.0 2.0 0.00 0.00 0.00 54 1017.4
20260508190221 62 103 0.0 2.0 0.00 0.00 0.00 54 1017.3
20260508190034 62 57 0.0 2.0 0.00 0.00 0.00 54 1017.3
20260508185713 62 66 1.0 4.0 0.00 0.00 0.00 55 1017.2
20260508185533 62 28 1.0 4.0 0.00 0.00 0.00 55 1017.2
20260508185213 62 24 1.0 4.0 0.00 0.00 0.00 55 1017.1
20260508185012 62 30 2.0 4.0 0.00 0.00 0.00 54 1017.2
20260508184711 62 24 2.0 4.0 0.00 0.00 0.00 55 1017.2
20260508184533 62 32 2.0 5.0 0.00 0.00 0.00 55 1017.1
20260508184218 63 46 2.0 5.0 0.00 0.00 0.00 55 1017.1
20260508184053 63 24 2.0 4.0 0.00 0.00 0.00 54 1017.0
20260508184041 63 25 1.0 4.0 0.00 0.00 0.00 54 1017.1
20260508184012 63 27 2.0 5.0 0.00 0.00 0.00 55 1017.1
20260508183817 63 64 2.0 5.0 0.00 0.00 0.00 55 1017.0
20260508183512 63 31 2.0 4.0 0.00 0.00 0.00 55 1017.0
20260508183012 63 40 2.0 4.0 0.00 0.00 0.00 54 1017.1
20260508182512 63 44 1.0 4.0 0.00 0.00 0.00 54 1017.0
20260508182309 63 63 1.0 4.0 0.00 0.00 0.00 54 1017.1
20260508182225 63 28 1.0 3.0 0.00 0.00 0.00 54 1017.0
20260508182033 63 31 1.0 4.0 0.00 0.00 0.00 54 1017.1
20260508181512 63 19 1.0 4.0 0.00 0.00 0.00 53 1017.1
20260508181204 64 11 1.0 4.0 0.00 0.00 0.00 53 1017.0
20260508181034 64 22 1.0 3.0 0.00 0.00 0.00 53 1017.0
20260508180655 64 21 1.0 3.0 0.00 0.00 0.00 53 1017.0
20260508180513 64 26 1.0 4.0 0.00 0.00 0.00 52 1017.1
20260508180344 64 46 2.0 4.0 0.00 0.00 0.00 51 1016.9
20260508180224 64 21 2.0 4.0 0.00 0.00 0.00 52 1016.9
20260508180013 64 29 2.0 4.0 0.00 0.00 0.00 52 1017.0
20260508175512 64 27 2.0 4.0 0.00 0.00 0.00 51 1016.9
20260508175203 64 57 2.0 4.0 0.00 0.00 0.00 51 1016.9
20260508175012 64 27 2.0 5.0 0.00 0.00 0.00 51 1017.0
20260508174822 64 32 2.0 7.0 0.00 0.00 0.00 50 1016.9
20260508174729 64 25 2.0 7.0 0.00 0.00 0.00 50 1016.8
20260508174512 64 25 2.0 7.0 0.00 0.00 0.00 50 1016.9
20260508174012 64 28 2.0 7.0 0.00 0.00 0.00 50 1016.9
20260508173640 64 19 2.0 5.0 0.00 0.00 0.00 50 1016.9
20260508173512 64 38 2.0 5.0 0.00 0.00 0.00 50 1016.8
20260508173324 65 38 3.0 7.0 0.00 0.00 0.00 49 1016.8
20260508173202 65 26 3.0 7.0 0.00 0.00 0.00 49 1016.8
20260508173033 65 40 3.0 7.0 0.00 0.00 0.00 49 1016.8
20260508172512 65 40 3.0 7.0 0.00 0.00 0.00 49 1016.8
20260508172135 65 32 2.0 6.0 0.00 0.00 0.00 48 1016.6
20260508172012 65 35 2.0 5.0 0.00 0.00 0.00 48 1016.7
20260508171641 65 18 1.0 5.0 0.00 0.00 0.00 48 1016.7
20260508171512 66 29 1.0 5.0 0.00 0.00 0.00 47 1016.7
20260508171150 66 19 1.0 5.0 0.00 0.00 0.00 45 1016.6
20260508171014 66 25 2.0 5.0 0.00 0.00 0.00 45 1016.6
20260508170640 66 80 2.0 5.0 0.00 0.00 0.00 43 1016.6
20260508170533 66 16 2.0 5.0 0.00 0.00 0.00 43 1016.5
20260508170137 66 53 2.0 5.0 0.00 0.00 0.00 43 1016.5
20260508170014 66 21 2.0 6.0 0.00 0.00 0.00 44 1016.5
20260508165640 66 73 2.0 6.0 0.00 0.00 0.00 42 1016.4
20260508165512 66 36 2.0 6.0 0.00 0.00 0.00 43 1016.4
20260508165132 66 28 2.0 6.0 0.00 0.00 0.00 42 1016.4
20260508165012 66 40 2.0 5.0 0.00 0.00 0.00 43 1016.4
20260508164637 66 76 1.0 5.0 0.00 0.00 0.00 42 1016.3
20260508164513 66 41 1.0 5.0 0.00 0.00 0.00 43 1016.4
20260508164135 66 103 0.0 2.0 0.00 0.00 0.00 45 1016.3
20260508164012 66 160 0.0 3.0 0.00 0.00 0.00 44 1016.4
20260508163640 66 242 0.0 3.0 0.00 0.00 0.00 45 1016.3
20260508163512 66 115 0.0 3.0 0.00 0.00 0.00 45 1016.4
20260508163149 65 148 0.0 3.0 0.00 0.00 0.00 43 1016.3
20260508163014 65 91 0.0 2.0 0.00 0.00 0.00 42 1016.4
20260508162637 65 49 0.0 3.0 0.00 0.00 0.00 40 1016.3
20260508162511 65 124 0.0 3.0 0.00 0.00 0.00 41 1016.3
20260508162317 65 98 1.0 3.0 0.00 0.00 0.00 42 1016.3
20260508162156 65 144 0.0 3.0 0.00 0.00 0.00 40 1016.2
20260508162013 65 133 0.0 3.0 0.00 0.00 0.00 40 1016.3
20260508161512 65 145 1.0 3.0 0.00 0.00 0.00 41 1016.3
20260508161140 65 145 1.0 3.0 0.00 0.00 0.00 41 1016.3
20260508161012 65 154 1.0 3.0 0.00 0.00 0.00 41 1016.4
20260508160636 65 145 1.0 2.0 0.00 0.00 0.00 43 1016.4
20260508160511 65 174 1.0 2.0 0.00 0.00 0.00 42 1016.4
20260508160125 65 198 1.0 4.0 0.00 0.00 0.00 44 1016.3
20260508160014 65 69 1.0 8.0 0.00 0.00 0.00 43 1016.4
20260508155719 66 62 2.0 8.0 0.00 0.00 0.00 44 1016.5
20260508155644 66 86 2.0 8.0 0.00 0.00 0.00 44 1016.4
20260508155512 66 41 1.0 8.0 0.00 0.00 0.00 44 1016.4
20260508155012 66 25 2.0 7.0 0.00 0.00 0.00 45 1016.4
20260508154617 66 10 3.0 6.0 0.00 0.00 0.00 47 1016.3
20260508154511 66 24 3.0 6.0 0.00 0.00 0.00 46 1016.4
20260508154121 66 18 2.0 6.0 0.00 0.00 0.00 47 1016.5
20260508154013 66 26 2.0 6.0 0.00 0.00 0.00 48 1016.6
20260508153953 65 34 1.0 3.0 0.00 0.00 0.00 47 1016.7
20260508153945 65 11 1.0 4.0 0.00 0.00 0.00 47 1016.7
20260508153728 65 76 1.0 6.0 0.00 0.00 0.00 48 1016.5
20260508153512 65 17 1.0 5.0 0.00 0.00 0.00 49 1016.6
20260508153149 65 15 2.0 5.0 0.00 0.00 0.00 47 1016.7
20260508153012 65 26 1.0 5.0 0.00 0.00 0.00 47 1016.6
20260508152512 65 64 1.0 3.0 0.00 0.00 0.00 48 1016.7
20260508152012 65 90 1.0 3.0 0.00 0.00 0.00 46 1016.8
20260508151621 65 28 1.0 4.0 0.00 0.00 0.00 47 1016.7
20260508151512 65 66 1.0 4.0 0.00 0.00 0.00 48 1016.8
20260508151145 65 140 1.0 4.0 0.00 0.00 0.00 47 1016.8
20260508151014 65 88 1.0 4.0 0.00 0.00 0.00 47 1016.8
20260508150624 65 13 1.0 4.0 0.00 0.00 0.00 48 1016.8
20260508150533 65 101 1.0 4.0 0.00 0.00 0.00 48 1016.8
20260508150122 65 61 1.0 5.0 0.00 0.00 0.00 48 1016.8
20260508150012 65 139 1.0 5.0 0.00 0.00 0.00 48 1016.8
20260508145625 65 74 1.0 5.0 0.00 0.00 0.00 48 1016.9
20260508145533 65 184 1.0 5.0 0.00 0.00 0.00 49 1016.9
20260508145118 65 160 1.0 5.0 0.00 0.00 0.00 48 1016.8
20260508145033 64 185 1.0 5.0 0.00 0.00 0.00 48 1016.8
20260508144612 64 222 1.0 5.0 0.00 0.00 0.00 48 1016.9
20260508144511 64 168 1.0 5.0 0.00 0.00 0.00 48 1016.9
20260508144354 64 173 1.0 5.0 0.00 0.00 0.00 48 1016.9
20260508144108 64 173 1.0 5.0 0.00 0.00 0.00 48 1016.9
20260508144034 64 78 1.0 4.0 0.00 0.00 0.00 48 1016.9
20260508143611 64 110 1.0 4.0 0.00 0.00 0.00 48 1016.8
20260508143513 64 45 2.0 4.0 0.00 0.00 0.00 48 1016.9
20260508143121 64 59 2.0 7.0 0.00 0.00 0.00 46 1016.9
20260508143016 64 30 2.0 7.0 0.00 0.00 0.00 47 1016.9
20260508142930 64 50 1.0 6.0 0.00 0.00 0.00 48 1017.0
20260508142657 64 42 2.0 7.0 0.00 0.00 0.00 47 1017.0
20260508142512 64 26 2.0 7.0 0.00 0.00 0.00 47 1017.0
20260508142015 64 38 1.0 6.0 0.00 0.00 0.00 48 1017.0
20260508141626 64 57 2.0 7.0 0.00 0.00 0.00 49 1017.2
20260508141512 64 30 2.0 7.0 0.00 0.00 0.00 49 1017.0
20260508141103 64 28 3.0 7.0 0.00 0.00 0.00 49 1016.9
20260508141012 64 26 3.0 7.0 0.00 0.00 0.00 49 1017.1
20260508140601 64 80 2.0 7.0 0.00 0.00 0.00 49 1017.1
20260508140512 64 30 2.0 7.0 0.00 0.00 0.00 49 1017.1
20260508140113 64 355 1.0 5.0 0.00 0.00 0.00 49 1017.0
20260508140013 64 44 1.0 5.0 0.00 0.00 0.00 49 1017.0
20260508135553 64 51 2.0 5.0 0.00 0.00 0.00 49 1017.0
20260508135511 64 31 2.0 5.0 0.00 0.00 0.00 49 1017.1
20260508135057 64 49 3.0 8.0 0.00 0.00 0.00 50 1017.1
20260508135012 64 23 2.0 8.0 0.00 0.00 0.00 50 1017.1
20260508134552 64 14 2.0 8.0 0.00 0.00 0.00 50 1017.0
20260508134512 64 28 2.0 8.0 0.00 0.00 0.00 50 1017.1
20260508134057 64 5 1.0 3.0 0.00 0.00 0.00 51 1017.0
20260508134012 64 107 0.0 3.0 0.00 0.00 0.00 51 1017.1
20260508133910 64 182 2.0 9.0 0.00 0.00 0.00 53 1017.1
20260508133658 64 98 1.0 4.0 0.00 0.00 0.00 51 1017.1
20260508133512 64 161 1.0 4.0 0.00 0.00 0.00 51 1017.1
20260508133013 64 60 2.0 9.0 0.00 0.00 0.00 52 1017.1
20260508132544 65 18 2.0 9.0 0.00 0.00 0.00 53 1017.1
20260508132511 64 32 2.0 9.0 0.00 0.00 0.00 52 1017.1
20260508132049 65 30 2.0 8.0 0.00 0.00 0.00 53 1017.1
20260508132012 64 26 2.0 8.0 0.00 0.00 0.00 53 1017.1
20260508131544 65 9 2.0 7.0 0.00 0.00 0.00 52 1017.1
20260508131511 65 33 2.0 5.0 0.00 0.00 0.00 52 1017.1
20260508131043 65 17 1.0 5.0 0.00 0.00 0.00 52 1017.1
20260508131015 65 45 1.0 5.0 0.00 0.00 0.00 52 1017.2
20260508130540 65 92 1.0 4.0 0.00 0.00 0.00 53 1017.0
20260508130513 64 44 1.0 4.0 0.00 0.00 0.00 53 1017.1
20260508130105 65 46 2.0 5.0 0.00 0.00 0.00 51 1017.0
20260508130033 64 37 2.0 5.0 0.00 0.00 0.00 51 1017.0
20260508125542 65 11 2.0 6.0 0.00 0.00 0.00 52 1017.1
20260508125512 64 38 3.0 6.0 0.00 0.00 0.00 53 1017.1
20260508125103 64 30 3.0 8.0 0.00 0.00 0.00 53 1017.1
20260508125012 64 34 2.0 8.0 0.00 0.00 0.00 53 1017.1
20260508124728 64 64 2.0 6.0 0.00 0.00 0.00 54 1017.1
20260508124620 64 44 3.0 8.0 0.00 0.00 0.00 53 1017.1
20260508124511 64 33 2.0 8.0 0.00 0.00 0.00 54 1017.2
20260508124012 64 40 2.0 6.0 0.00 0.00 0.00 54 1017.2
20260508123537 64 52 1.0 5.0 0.00 0.00 0.00 53 1017.1
20260508123512 64 60 1.0 5.0 0.00 0.00 0.00 53 1017.2
20260508123045 64 132 1.0 4.0 0.00 0.00 0.00 53 1017.2
20260508123012 64 122 1.0 4.0 0.00 0.00 0.00 53 1017.2